Meteo pe oră la Dzierzazno

Astăzi, 9 Martie, Marţi

Timp Temperatura Precipitaţii Vânt Presiune Umiditate
00:00 -2°C° 0 mm 1 m/s 758 mmHg 82%
01:00 -2°C° 0 mm 1 m/s 757 mmHg 81%
02:00 -2°C° 0 mm 1 m/s 757 mmHg 80%
03:00 -1°C° 0 mm 1 m/s 757 mmHg 79%
04:00 -1°C° 0 mm 1 m/s 757 mmHg 78%
05:00 -1°C° 0 mm 1 m/s 757 mmHg 77%
06:00 -3°C° 0 mm 2 m/s 757 mmHg 76%
07:00 -3°C° 0 mm 2 m/s 757 mmHg 75%
08:00 -2°C° 0 mm 2 m/s 757 mmHg 69%
09:00 -1°C° 0 mm 3 m/s 757 mmHg 62%
10:00 0°C° 0 mm 3 m/s 757 mmHg 56%
11:00 0°C° 0 mm 3 m/s 757 mmHg 52%
12:00 +1°C° 0 mm 3 m/s 757 mmHg 49%
13:00 +1°C° 0 mm 3 m/s 757 mmHg 46%
14:00 +1°C° 0 mm 3 m/s 756 mmHg 47%
15:00 +2°C° 0 mm 2 m/s 756 mmHg 48%
16:00 +2°C° 0 mm 2 m/s 756 mmHg 49%
17:00 +1°C° 0 mm 2 m/s 756 mmHg 55%
18:00 -1°C° 0 mm 3 m/s 756 mmHg 60%
19:00 -2°C° 0 mm 3 m/s 756 mmHg 66%
20:00 -4°C° 0 mm 3 m/s 756 mmHg 66%
21:00 -4°C° 0 mm 3 m/s 756 mmHg 66%
22:00 -4°C° 0 mm 3 m/s 756 mmHg 66%
23:00 -4°C° 0 mm 3 m/s 756 mmHg 66%

Mâine, 10 Martie, Miercuri

Timp Temperatura Precipitaţii Vânt Presiune Umiditate
00:00 -3°C° 0 mm 2 m/s 756 mmHg 67%
01:00 -3°C° 0 mm 2 m/s 756 mmHg 67%
02:00 -3°C° 0 mm 2 m/s 756 mmHg 66%
03:00 -4°C° 0 mm 2 m/s 756 mmHg 64%
04:00 -4°C° 0 mm 2 m/s 755 mmHg 63%
05:00 -1°C° 0 mm 1 m/s 756 mmHg 62%
06:00 -1°C° 0 mm 1 m/s 756 mmHg 60%
07:00 -1°C° 0 mm 1 m/s 756 mmHg 58%
08:00 0°C° 0 mm 1 m/s 756 mmHg 53%
09:00 +2°C° 0 mm 1 m/s 756 mmHg 48%
10:00 +3°C° 0 mm 1 m/s 756 mmHg 43%
11:00 +4°C° 0 mm 1 m/s 756 mmHg 40%
12:00 +4°C° 0 mm 1 m/s 756 mmHg 38%
13:00 +4°C° 0 mm 2 m/s 756 mmHg 35%
14:00 +5°C° 0 mm 1 m/s 756 mmHg 37%
15:00 +5°C° 0 mm 1 m/s 756 mmHg 38%
16:00 +4°C° 0 mm 0 m/s 756 mmHg 39%
17:00 +2°C° 0 mm 0 m/s 756 mmHg 43%
18:00 +1°C° 0 mm 0 m/s 756 mmHg 46%
19:00 0°C° 0 mm 0 m/s 756 mmHg 50%
20:00 0°C° 0 mm 1 m/s 756 mmHg 52%
21:00 0°C° 0 mm 1 m/s 756 mmHg 53%
22:00 -2°C° 0 mm 2 m/s 756 mmHg 55%
23:00 -2°C° 0 mm 2 m/s 756 mmHg 56%

Poimâine, 11 Martie, Joi

Timp Temperatura Precipitaţii Vânt Presiune Umiditate
00:00 -4°C° 0 mm 3 m/s 756 mmHg 58%
01:00 -4°C° 0 mm 3 m/s 756 mmHg 59%
02:00 -4°C° 0 mm 3 m/s 755 mmHg 59%
03:00 -4°C° 0 mm 3 m/s 754 mmHg 59%
04:00 -4°C° 0 mm 3 m/s 754 mmHg 59%
05:00 -4°C° 0 mm 4 m/s 753 mmHg 56%
06:00 -4°C° 0 mm 5 m/s 753 mmHg 54%
07:00 -4°C° 0 mm 5 m/s 753 mmHg 52%
08:00 -2°C° 0 mm 6 m/s 752 mmHg 49%
09:00 -1°C° 0 mm 7 m/s 752 mmHg 46%
10:00 0°C° 0 mm 8 m/s 751 mmHg 43%
11:00 +1°C° 0 mm 8 m/s 750 mmHg 47%
12:00 +2°C° 0 mm 8 m/s 749 mmHg 50%
13:00 +2°C° 0 mm 8 m/s 749 mmHg 54%
14:00 +1°C° 0.4 mm 8 m/s 747 mmHg 67%
15:00 +1°C° 0.4 mm 8 m/s 746 mmHg 80%
16:00 0°C° 0.4 mm 8 m/s 745 mmHg 93%
17:00 0°C° 1 mm 7 m/s 745 mmHg 94%
18:00 0°C° 1 mm 7 m/s 744 mmHg 94%
19:00 0°C° 1 mm 7 m/s 744 mmHg 95%
20:00 +2°C° 0.6 mm 7 m/s 743 mmHg 94%
21:00 +3°C° 0.6 mm 6 m/s 743 mmHg 93%
22:00 +3°C° 0.6 mm 6 m/s 743 mmHg 92%
23:00 +3°C° 0 mm 6 m/s 743 mmHg 92%

12 Martie, Vineri

Timp Temperatura Precipitaţii Vânt Presiune Umiditate
00:00 +3°C° 0 mm 6 m/s 743 mmHg 92%
01:00 +2°C° 0 mm 6 m/s 743 mmHg 92%
02:00 +2°C° 0.7 mm 6 m/s 743 mmHg 92%
03:00 +2°C° 0.7 mm 6 m/s 743 mmHg 91%
04:00 +2°C° 0.7 mm 5 m/s 743 mmHg 91%
05:00 +2°C° 0 mm 6 m/s 743 mmHg 89%
06:00 +2°C° 0 mm 7 m/s 744 mmHg 87%
07:00 +1°C° 0 mm 8 m/s 744 mmHg 85%
08:00 +1°C° 0.3 mm 8 m/s 744 mmHg 86%
09:00 +1°C° 0.3 mm 9 m/s 745 mmHg 86%
10:00 +1°C° 0.3 mm 9 m/s 746 mmHg 87%
11:00 +2°C° 0 mm 9 m/s 746 mmHg 78%
12:00 +4°C° 0 mm 8 m/s 747 mmHg 69%
13:00 +6°C° 0 mm 8 m/s 748 mmHg 59%
14:00 +5°C° 0.1 mm 7 m/s 748 mmHg 61%
15:00 +5°C° 0.1 mm 6 m/s 748 mmHg 63%
16:00 +5°C° 0.1 mm 6 m/s 748 mmHg 65%
17:00 +5°C° 0 mm 5 m/s 748 mmHg 69%
18:00 +4°C° 0 mm 4 m/s 748 mmHg 73%
19:00 +3°C° 0 mm 3 m/s 748 mmHg 77%
20:00 +1°C° 0 mm 4 m/s 748 mmHg 78%
21:00 +1°C° 0 mm 4 m/s 748 mmHg 79%
22:00 +1°C° 0 mm 4 m/s 747 mmHg 80%
23:00 +1°C° 0 mm 4 m/s 747 mmHg 79%

13 Martie, Sâmbătă

Timp Temperatura Precipitaţii Vânt Presiune Umiditate
00:00 +1°C° 0 mm 5 m/s 747 mmHg 78%
01:00 +1°C° 0 mm 5 m/s 746 mmHg 77%
02:00 +1°C° 0 mm 5 m/s 746 mmHg 77%
03:00 +1°C° 0 mm 6 m/s 745 mmHg 77%
04:00 +1°C° 0 mm 6 m/s 745 mmHg 78%
05:00 +1°C° 0.5 mm 6 m/s 745 mmHg 81%
06:00 +2°C° 0.5 mm 6 m/s 745 mmHg 85%
07:00 +2°C° 0.5 mm 6 m/s 745 mmHg 89%
08:00 +3°C° 0 mm 6 m/s 745 mmHg 83%
09:00 +3°C° 0 mm 7 m/s 746 mmHg 77%
10:00 +4°C° 0 mm 8 m/s 746 mmHg 71%
11:00 +5°C° 0 mm 8 m/s 746 mmHg 66%
12:00 +6°C° 0 mm 7 m/s 746 mmHg 61%
13:00 +8°C° 0 mm 7 m/s 746 mmHg 55%
14:00 +8°C° 0 mm 7 m/s 745 mmHg 58%
15:00 +8°C° 0 mm 7 m/s 745 mmHg 60%
16:00 +8°C° 0 mm 7 m/s 744 mmHg 63%
17:00 +6°C° 0 mm 7 m/s 744 mmHg 66%
18:00 +5°C° 0 mm 7 m/s 744 mmHg 70%
19:00 +5°C° 0 mm 7 m/s 743 mmHg 73%
20:00 +5°C° 0.1 mm 7 m/s 743 mmHg 76%
21:00 +5°C° 0.1 mm 8 m/s 743 mmHg 79%
22:00 +5°C° 0.1 mm 8 m/s 743 mmHg 81%
23:00 +5°C° 0 mm 8 m/s 742 mmHg 80%

14 Martie, Duminică

Timp Temperatura Precipitaţii Vânt Presiune Umiditate
00:00 +5°C° 0 mm 7 m/s 742 mmHg 78%
01:00 +5°C° 0 mm 7 m/s 741 mmHg 76%
02:00 +5°C° 0 mm 7 m/s 741 mmHg 77%
03:00 +5°C° 0 mm 7 m/s 740 mmHg 78%
04:00 +4°C° 0 mm 7 m/s 740 mmHg 78%
05:00 +4°C° 0.3 mm 7 m/s 739 mmHg 79%
06:00 +5°C° 0.3 mm 8 m/s 739 mmHg 80%
07:00 +5°C° 0.3 mm 8 m/s 739 mmHg 81%
08:00 +5°C° 0.3 mm 8 m/s 739 mmHg 78%
09:00 +5°C° 0.3 mm 8 m/s 740 mmHg 75%
10:00 +5°C° 0.3 mm 9 m/s 740 mmHg 72%
11:00 +5°C° 0 mm 9 m/s 741 mmHg 68%
12:00 +5°C° 0 mm 9 m/s 741 mmHg 63%
13:00 +5°C° 0 mm 9 m/s 742 mmHg 59%
14:00 +5°C° 0 mm 8 m/s 742 mmHg 61%
15:00 +5°C° 0 mm 8 m/s 742 mmHg 63%
16:00 +4°C° 0 mm 7 m/s 743 mmHg 66%
17:00 +4°C° 0 mm 7 m/s 743 mmHg 68%
18:00 +3°C° 0 mm 7 m/s 744 mmHg 70%
19:00 +3°C° 0 mm 6 m/s 744 mmHg 72%
20:00 +2°C° 0.1 mm 6 m/s 744 mmHg 75%
21:00 +2°C° 0.1 mm 6 m/s 745 mmHg 78%
22:00 +2°C° 0.1 mm 6 m/s 745 mmHg 80%
23:00 +2°C° 0 mm 6 m/s 745 mmHg 82%
Arată mai mult

Formular de consimțământ

Meteoprog și furnizorii noștri de servicii pot stoca și accesa date personale, precum cookies, identificatori de dispozitiv sau alte tehnologii similare pe dispozitivul dumneavoastră și procesa astfel de date pentru a personaliza conținutul și reclamele, dar și pentru a oferi caracteristici de social media și pentru a analiza traficul.

  • Stocarea și/sau accesarea informațiilor pe dispozitivul dumneavoastră

    Cookies, identificatori de dispozitiv sau alte informații pot fi stocate sau accesate pe dispozitiv în scopurile indicate mai sus.

  • Reclame și conținut personalizat, evaluarea reclamelor și a conținutului, informații despre audiențe și dezvoltarea produselor

    Reclamele și conținutul pot fi personalizate pe baza unui profil. Pot fi adăugate date suplimentare pentru a personaliza mai bine reclamele și conținutul. Performanța reclamelor și conținutului poate fi măsurată. Pot fi obținute informații despre utilizatorii care au văzut reclamele și conținutul. Aceste date pot fi utilizate pentru a dezvolta sau îmbunătăți experiența utilizatorilor, sistemele și software-ul.

Dând clic pe ‘Sunt de acord’, permiteți utilizarea cookie-urilor menționate, a identificatorilor de dispozitiv, balizelor web sau altor tehnologii similare. Setările pot fi modificate din browser-ul dispozitivului dumneavoastră.

În anumite scopuri, interesele legitime pot prima asupra consimțământului. Puteți citi mai multe informații în acest sens în Politica privind Confidențialitatea Datelor și Cookie.